Location: Ku?niki
(51.4449°N, 17.8974°E)
Time: 02:35:37
(UTC+00:00)

ATLAS CENTAUR R/B - Pass Details

Date: 18 September 2020
Orbit: 479 x 667 km, 64.7° (Epoch: 12 October)

Event Time Altitude Azimuth Distance (km) Brightness Sun altitude
Rises 19:30:01 0° 297° (WNW) 2,605 6.2 -23.4°
Reaches altitude 10° 19:33:35 10° 332° (NNW) 1,691 4.7 -23.8°
Maximum altitude 19:34:55 12° 353° (N) 1,590 4.2 -24.0°
Drops below altitude 10° 19:36:13 10° 13° (NNE) 1,676 4.0 -24.1°
Enters shadow 19:37:33 - 30° (NNE) 1,925 4.2 -24.3°
